Greensboro, NC

12:00 PM EDT on September 26, 2017 (GMT -0400)
Piedmont Triad International

Weather History for KGSO - July, 2013

Change the Weather History Date:

Monday, July 15, 2013

  Actual Average Record
Temperature  
Mean Temperature 79 °F 79 °F  
Max Temperature 88 °F 88 °F 97 °F (1974)
Min Temperature 69 °F 69 °F 56 °F (1926)
Degree Days  
Heating Degree Days 0 0  
Month to date heating degree days 0 0  
Since 1 June heating degree days 0 6  
Since 1 July heating degree days 0 0  
Cooling Degree Days 14 14  
Month to date cooling degree days 188 204  
Year to date cooling degree days 637 670  
Since 1 June cooling degree days 487 511  
Growing Degree Days 28 (Base 50)    
Moisture  
Dew Point 68 °F    
Average Humidity 73    
Maximum Humidity 100    
Minimum Humidity 46    
Precipitation  
Precipitation 0.00 in 0.15 in 2.57 in (1975)
Month to date precipitation 4.24 2.05  
Year to date precipitation 30.96 22.48  
Sea Level Pressure  
Sea Level Pressure 30.29 in    
Wind  
Wind Speed 3 mph (East)    
Max Wind Speed 10 mph    
Max Gust Speed 15 mph    
Visibility 10 miles    
Events Fog    
T = Trace of Precipitation, MM = Missing Value Source: NWS Daily Summary

Daily Weather History Graph

Daily Weather History Graph

Search for Another Location

Airport or City:

Trip Planner

Search our weather history database for the weather conditions in past years. The results will help you decide how hot, cold, wet, or windy it might be!

Date:

Astronomy

Jul. 15, 2013 Rise Set
Actual Time 6:14 AM EDT 8:36 PM EDT
Civil Twilight 5:44 AM EDT 9:06 PM EDT
Nautical Twilight 5:08 AM EDT 9:42 PM EDT
Astronomical Twilight 4:28 AM EDT 10:22 PM EDT
Moon 1:17 PM EDT (7/15) 12:02 AM EDT (7/15)
Length of Visible Light 15h 21m
Length of Day
14h 22m
Waxing Crescent, 45% of the Moon is Illuminated
Jul 15
Waxing Crescent
Jul 15
First Quarter
Jul 22
Full
Jul 29
Last Quarter
Aug 6
New

Hourly Weather History & Observations

Time (EDT) Temp. Heat Index Dew Point Humidity Pressure Visibility Wind Dir Wind Speed Gust Speed Precip Events Conditions
12:54 AM 73.0 °F - 70.0 °F 90% 30.30 in 10.0 mi Calm Calm - N/A   Mostly Cloudy
1:54 AM 73.0 °F - 70.0 °F 90% 30.30 in 10.0 mi Calm Calm - N/A   Mostly Cloudy
2:54 AM 72.0 °F - 70.0 °F 93% 30.29 in 10.0 mi NE 3.5 mph - N/A   Mostly Cloudy
3:54 AM 72.0 °F - 69.1 °F 91% 30.29 in 10.0 mi Calm Calm - N/A   Mostly Cloudy
4:54 AM 71.1 °F - 69.1 °F 93% 30.29 in 10.0 mi Calm Calm - N/A   Mostly Cloudy
5:54 AM 70.0 °F - 69.1 °F 97% 30.30 in 9.0 mi Calm Calm - N/A Fog Patches of Fog
6:54 AM 70.0 °F - 69.1 °F 97% 30.31 in 8.0 mi ENE 3.5 mph - N/A Fog Patches of Fog
7:54 AM 73.9 °F - 70.0 °F 87% 30.32 in 10.0 mi Calm Calm - N/A   Mostly Cloudy
8:54 AM 75.9 °F - 71.1 °F 85% 30.32 in 10.0 mi Calm Calm - N/A   Mostly Cloudy
9:36 AM 78.8 °F - 71.6 °F 78% 30.36 in 10.0 mi ESE 4.6 mph - N/A   Mostly Cloudy
9:54 AM 80.1 °F 82.9 °F 69.1 °F 69% 30.32 in 10.0 mi Calm Calm - N/A   Scattered Clouds
10:54 AM 82.9 °F 86.5 °F 69.1 °F 63% 30.32 in 10.0 mi ENE 5.8 mph - N/A   Mostly Cloudy
11:54 AM 82.9 °F 85.4 °F 66.9 °F 58% 30.32 in 10.0 mi Variable 5.8 mph - N/A   Mostly Cloudy
12:54 PM 82.9 °F 85.4 °F 66.9 °F 58% 30.32 in 10.0 mi Calm Calm - N/A   Scattered Clouds
1:54 PM 86.0 °F 88.8 °F 66.9 °F 53% 30.30 in 10.0 mi Variable 5.8 mph - N/A   Scattered Clouds
2:54 PM 87.1 °F 89.9 °F 66.9 °F 51% 30.28 in 10.0 mi East 5.8 mph - N/A   Scattered Clouds
3:54 PM 86.0 °F 87.6 °F 64.9 °F 49% 30.27 in 10.0 mi ESE 5.8 mph - N/A   Scattered Clouds
4:54 PM 87.1 °F 88.3 °F 64.0 °F 46% 30.27 in 10.0 mi SSE 3.5 mph - N/A   Scattered Clouds
5:54 PM 87.1 °F 88.9 °F 64.9 °F 48% 30.25 in 10.0 mi Variable 3.5 mph - N/A   Mostly Cloudy
6:54 PM 86.0 °F 88.2 °F 66.0 °F 51% 30.25 in 10.0 mi East 8.1 mph - N/A   Mostly Cloudy
7:54 PM 82.9 °F 85.8 °F 68.0 °F 60% 30.25 in 10.0 mi East 5.8 mph - N/A   Scattered Clouds
8:54 PM 81.0 °F 83.8 °F 68.0 °F 65% 30.26 in 10.0 mi East 3.5 mph - N/A   Scattered Clouds
9:54 PM 80.1 °F 82.7 °F 68.0 °F 67% 30.27 in 10.0 mi Calm Calm - N/A   Scattered Clouds
10:54 PM 77.0 °F - 69.1 °F 76% 30.27 in 10.0 mi Calm Calm - N/A   Clear
11:54 PM 75.9 °F - 69.1 °F 79% 30.27 in 10.0 mi Calm Calm - N/A   Clear